Find Local Weather

World > North America > United States > Florida

Fort Myers Beach, Florida Regional Weather

Lat: 26.45N, Lon: 81.95W
Wx Zone: FLZ165
Feedback
Expires:201812190800;;014889
ASUS42 KTBW 190716
RWRFL 
FLORIDA REGIONAL WEATHER ROUNDUP
NATIONAL WEATHER SERVICE TAMPA BAY RUSKIN FL
200 AM EST WED DEC 19 2018

NOTE: "FAIR" INDICATES FEW OR NO CLOUDS BELOW 12,000 FEET WITH NO
SIGNIFICANT WEATHER AND/OR OBSTRUCTIONS TO VISIBILITY.


FLZ066-069-070-075>078-162-262-165-265-190800-
SOUTHWEST FLORIDA AND KEYS
  
CITY           SKY/WX    TMP DP  RH WIND       PRES   REMARKS
PUNTA GORDA    FAIR      50  45  83 CALM      30.07F                  
FT MYERS       FAIR      55  51  86 CALM      30.05F                  
SOUTHWEST INTL FAIR      53  50  89 CALM      30.05F                  
NAPLES           N/A    N/A N/A N/A MISG      30.04F                  
MARCO ISLAND   FAIR      55  53  93 NE5       30.05F                  
IMMOKALEE      PTCLDY    50  48  93 CALM      30.04F                  
MARATHON       FAIR      70  63  78 NE7       30.02F                  
KEY WEST NAS   FAIR      69  64  84 NE6       30.02F                  
KEY WEST INTL  FAIR      68  64  87 NE5       30.02F                  

STATION/POSITION SKY/WX   TEMP    WIND        PRES    WAVE   SWELL
                          AIR SEA DIR/SP/G            HT/PER HT/PER
                          (F)     (DEG/KT/KT) (MB)    (FT/S) (FT/S)
NAPLES                     60 69   90/  4/  5 1017.1F
26.0N   85.6W              72 75  120/ 12/ 14 1016.0F   2/ 4
DRY TORTUGAS               71      90/ 11/ 12 1016.2F
SAND KEY                   70                 1016.7F
SOMBRERO KEY               70                 1016.0F
LONG KEY                   69 71   30/  6/  7 1017.2F
MOLASSES REEF              73 77   80/  7/  9 1016.9F

$$

SKY/WX - Weather  TMP - Temperature  DP - Dew Point  RH - Relative Humidity
WIND - Wind Direction/Speed PRES - Barometric Pressure